[[{"header":{"parameterUnit":"m.s-1","parameterCategory":1,"la1":30.2991,"la2":30.254,"lo1":-89.0895,"lo2":-89.0444,"dy":0.0017,"dx":0.0017,"nx":28,"ny":28,"refTime":"2025-03-21T03:00:00:Z","depth":0,"parameterNumber":2,"parameterNumberName":"U-component_of_WINDS"},"data":[0,0,0,0,0,0,0,0,0,0,0,0,0,0,0,0,0,0,0,0,0,0,0,0,0,0,0,0,0,0,0,0,0,0,0,0,0,0,0,0,0,0,0,0,0,0,0,0,0,0,0,0,0,0,0,0,0,0,0.185,0.185,0,0.1833,0.1833,0.1833,0.1856,0.1857,0.1857,0.1858,0.1839,0.1838,0.1837,0,0,0,0,0,0,0,0,0,0,0,0,0,0.1902,0.1901,0.185,0.185,0.185,0.1833,0.1833,0.1833,0.1856,0.1857,0.1858,0.1859,0.184,0.1838,0.1837,0,0,0,0,0,0,0,0,0,0,0,0,0,0.1882,0.19,0.185,0.1859,0.186,0.1833,0.1833,0.1833,0.1855,0.1857,0.1858,0.1859,0.184,0.1838,0.1837,0.18,0,0,0.1831,0.183,0,0,0,0,0,0,0,0,0.1883,0.188,0.1858,0.1858,0.1859,0.1848,0.1844,0.1822,0.1855,0.1857,0.1858,0.186,0.1841,0.1839,0.1833,0.1799,0.1798,0.1831,0.1829,0.1829,0.1828,0,0,0,0,0,0,0,0.1884,0.188,0.1843,0.1858,0.1858,0.1864,0.1862,0.184,0.1842,0.1857,0.1859,0.1856,0.1842,0.1835,0.1833,0.1798,0.1831,0.1829,0.1828,0.1827,0.1735,0.1734,0,0,0,0,0,0,0.1884,0.1881,0.1844,0.1843,0.1874,0.1862,0.186,0.185,0.1843,0.1843,0.1855,0.1858,0.1838,0.1835,0.1832,0.179,0.1829,0.1827,0.1826,0.1736,0.1735,0.1733,0,0,0,0,0,0,0.1885,0.1881,0.1845,0.1863,0.1858,0.186,0.1848,0.1849,0.1843,0.1841,0.1842,0.1848,0.1839,0.1835,0.1808,0.179,0.1826,0.1824,0.1738,0.1736,0.1734,0.1704,0,0,0,0,0,0,0.1887,0.1881,0.1867,0.1862,0.1857,0.1821,0.1847,0.1848,0.184,0.1842,0.1835,0.1835,0.1839,0.1811,0.1806,0.1788,0.1823,0.1739,0.1737,0.1734,0.1707,0.1702,0.1697,0,0,0,0,0,0.1889,0.1859,0.1866,0.1861,0.184,0.1819,0.1817,0.1823,0.1838,0.1824,0.1824,0.1835,0.1793,0.1808,0.1803,0.1784,0.174,0.1737,0.1735,0.1709,0.1703,0.1697,0,0,0,0,0,0,0.186,0.1858,0.1866,0.1834,0.1827,0.1823,0.1806,0.1816,0.1804,0.1806,0.1815,0.1813,0.1784,0.1781,0.1799,0.1749,0.1769,0.1765,0.1752,0.1745,0.1741,0.1742,0.1821,0,0,0,0,0,0.185,0.1834,0.1833,0.1804,0.1801,0.1804,0.1795,0.1801,0.1794,0.179,0.1788,0.178,0.1765,0.1755,0.1741,0.1707,0.1706,0.1691,0.1686,0.1682,0.1679,0.1662,0.1656,0.1723,0.1724,0.1724,0,0,0.1829,0.1826,0.1815,0.1799,0.1794,0.1777,0.1801,0.1782,0.177,0.1787,0.1762,0.176,0.1752,0.1722,0.1709,0.1719,0.166,0.1679,0.1675,0.1674,0.1658,0.1652,0.1646,0.1722,0.1722,0.1722,0,0,0.1782,0.1778,0.1754,0.175,0.1743,0.1745,0.174,0.1735,0.1735,0.1711,0.1724,0.171,0.1684,0.1678,0.1672,0.1625,0.1636,0.1621,0.1594,0.1578,0.1573,0.1568,0.1552,0.1546,0.1617,0.1617,0.1617,0,0.1756,0.1732,0.1741,0.1721,0.1714,0.1731,0.1708,0.1703,0.1691,0.1686,0.1698,0.1667,0.1662,0.1632,0.1621,0.1615,0.1609,0.1621,0.1573,0.1568,0.1564,0.1549,0.1543,0.1615,0.1615,0.1616,0.1616,0,0.1701,0.1684,0.1666,0.1656,0.1647,0.1626,0.1632,0.1622,0.1629,0.1631,0.1606,0.1602,0.1588,0.1582,0.1588,0.1552,0.1559,0.1572,0.1592,0.1556,0.1542,0.1536,0.1613,0.1613,0.1614,0.1614,0,0,0.1634,0.1631,0.1624,0.1621,0.1616,0.1603,0.1583,0.1571,0.1562,0.1554,0.1538,0.1517,0.1529,0.1522,0.1528,0.1513,0.1479,0.1528,0.1528,0.152,0.1441,0.1431,0.1424,0.1486,0.1485,0.1484,0.1442,0,0.1588,0.1554,0.1562,0.1529,0.1514,0.1531,0.1514,0.1509,0.1511,0.1498,0.15,0.1485,0.1502,0.1498,0.1485,0.1486,0.1463,0.1489,0.1471,0.147,0.1473,0.1417,0.1407,0.1367,0.1436,0.1435,0.1435,0,0.1529,0.152,0.1486,0.1485,0.1479,0.1463,0.1454,0.1442,0.1437,0.144,0.1433,0.1442,0.1423,0.1445,0.1419,0.1436,0.143,0.1429,0.1428,0.1426,0.145,0.1414,0.1354,0.1348,0.1426,0.1427,0.1427,0,0.1484,0.1464,0.1441,0.1438,0.1436,0.1425,0.1423,0.142,0.1413,0.1405,0.14,0.139,0.1384,0.1375,0.1382,0.1397,0.1355,0.1377,0.1357,0.1357,0.1347,0.1348,0.1285,0.1343,0.1343,0.1343,0.1343,0,0.1432,0.141,0.1422,0.1407,0.1384,0.1395,0.1371,0.1372,0.1369,0.1356,0.137,0.1357,0.1366,0.1354,0.1359,0.1338,0.1335,0.1336,0.1338,0.1335,0.1335,0.1331,0.1334,0.1341,0.1342,0.1342,0.1342,0,0.1377,0.1384,0.1361,0.1362,0.1362,0.1345,0.1346,0.1333,0.1336,0.1319,0.1316,0.1321,0.1308,0.1314,0.13,0.1303,0.1276,0.1281,0.1278,0.1279,0.1259,0.1261,0.1192,0.1184,0.1246,0.1246,0.1245,0,0.1343,0.1327,0.1328,0.132,0.1319,0.1306,0.13,0.131,0.1302,0.1297,0.1285,0.1274,0.1265,0.1243,0.1245,0.1235,0.124,0.1217,0.1239,0.1237,0.1241,0.1242,0.1241,0.1212,0.1212,0.1211,0.1211,0,0.1283,0.1288,0.1278,0.127,0.1262,0.1256,0.1251,0.1244,0.1254,0.1245,0.1233,0.1226,0.1213,0.1201,0.1193,0.1192,0.1203,0.1204,0.1199,0.1196,0.1195,0.1196,0.1266,0.1205,0.1206,0.1206,0.1206,0.1207,0.1238,0.1225,0.1224,0.1214,0.1212,0.1207,0.1196,0.1199,0.1189,0.118,0.1186,0.1172,0.1169,0.1159,0.1157,0.1146,0.1155,0.1147,0.1145,0.1143,0.1141,0.1197,0.1144,0.1144,0.1144,0.1144,0.1144,0,0.1179,0.118,0.117,0.1164,0.1155,0.1168,0.1164,0.1156,0.1144,0.1141,0.1133,0.1119,0.1108,0.1111,0.1102,0.1092,0.1097,0.109,0.109,0.109,0.1133,0.1139,0.1086,0.1086,0.1086,0.1086,0.1086,0.1086,0.1147,0.1127,0.1132,0.1112,0.1112,0.1099,0.1096,0.1092,0.109,0.1075,0.1067,0.1069,0.1068,0.106,0.1051,0.1052,0.1048,0.1038,0.1041,0.1081,0.1087,0.1092,0.1098,0.1037,0.1037,0.1,0.0999,0.0999]},{"header":{"parameterUnit":"m.s-1","parameterCategory":1,"la1":30.2991,"la2":30.254,"lo1":-89.0895,"lo2":-89.0444,"dy":0.0017,"dx":0.0017,"nx":28,"ny":28,"refTime":"2025-03-21T03:00:00:Z","depth":0,"parameterNumber":3,"parameterNumberName":"V-component_of_WINDS"},"data":[0,0,0,0,0,0,0,0,0,0,0,0,0,0,0,0,0,0,0,0,0,0,0,0,0,0,0,0,0,0,0,0,0,0,0,0,0,0,0,0,0,0,0,0,0,0,0,0,0,0,0,0,0,0,0,0,0,0,-3.6524,-3.6526,0,-3.6674,-3.6675,-3.6677,-3.6629,-3.6626,-3.6622,-3.6619,-3.6771,-3.6778,-3.6785,0,0,0,0,0,0,0,0,0,0,0,0,0,-3.6195,-3.6201,-3.6524,-3.6526,-3.6528,-3.6673,-3.6675,-3.6678,-3.6629,-3.6625,-3.6622,-3.6618,-3.6768,-3.6777,-3.6785,0,0,0,0,0,0,0,0,0,0,0,0,0,-3.634,-3.6203,-3.6524,-3.6521,-3.6523,-3.6673,-3.6676,-3.6678,-3.663,-3.6625,-3.6621,-3.6616,-3.6766,-3.6776,-3.6786,-3.6947,0,0,-3.6819,-3.6823,0,0,0,0,0,0,0,0,-3.6332,-3.6352,-3.652,-3.6522,-3.6524,-3.6628,-3.6615,-3.6768,-3.6631,-3.6589,-3.6619,-3.6614,-3.6727,-3.674,-3.6779,-3.6955,-3.6961,-3.6819,-3.6826,-3.683,-3.6833,0,0,0,0,0,0,0,-3.6322,-3.6346,-3.6583,-3.6522,-3.6525,-3.6512,-3.6528,-3.6644,-3.6683,-3.6593,-3.659,-3.6608,-3.6727,-3.6769,-3.6782,-3.6963,-3.6819,-3.6828,-3.6835,-3.6839,-3.7277,-3.7283,0,0,0,0,0,0,-3.6311,-3.6338,-3.6578,-3.6588,-3.6414,-3.6522,-3.6539,-3.6599,-3.6682,-3.669,-3.6612,-3.6605,-3.6753,-3.677,-3.6787,-3.6981,-3.683,-3.684,-3.6846,-3.7272,-3.7279,-3.7284,0,0,0,0,0,0,-3.6304,-3.6333,-3.6572,-3.6462,-3.6491,-3.6533,-3.66,-3.6605,-3.6646,-3.6696,-3.6703,-3.6648,-3.675,-3.6772,-3.6908,-3.6986,-3.6845,-3.6854,-3.7266,-3.7274,-3.7282,-3.737,0,0,0,0,0,0,-3.6295,-3.6331,-3.6393,-3.6464,-3.6498,-3.6692,-3.6605,-3.6611,-3.6665,-3.6658,-3.6732,-3.6739,-3.6748,-3.6892,-3.6918,-3.6998,-3.6863,-3.7259,-3.727,-3.7279,-3.7361,-3.738,-3.7397,0,0,0,0,0,-3.6283,-3.6412,-3.6397,-3.6426,-3.6577,-3.6696,-3.6716,-3.6724,-3.6671,-3.6734,-3.6766,-3.6737,-3.6973,-3.6907,-3.6936,-3.7019,-3.7254,-3.7267,-3.7278,-3.7352,-3.7376,-3.7397,0,0,0,0,0,0,-3.635,-3.6421,-3.6405,-3.6561,-3.6623,-3.6688,-3.6767,-3.6749,-3.6827,-3.6817,-3.6822,-3.684,-3.6979,-3.7012,-3.6937,-3.7179,-3.7106,-3.7124,-3.7152,-3.7175,-3.7193,-3.7183,-3.6871,0,0,0,0,0,-3.6382,-3.6474,-3.6532,-3.6663,-3.6695,-3.6726,-3.6779,-3.6779,-3.6844,-3.687,-3.6911,-3.6975,-3.7062,-3.7121,-3.7204,-3.7365,-3.738,-3.7436,-3.7454,-3.7469,-3.7485,-3.7572,-3.7597,-3.7324,-3.7324,-3.7323,0,0,-3.6451,-3.6502,-3.6559,-3.6678,-3.6726,-3.6821,-3.6749,-3.6852,-3.6922,-3.6885,-3.7016,-3.7049,-3.7119,-3.7268,-3.7335,-3.73,-3.7564,-3.7484,-3.7496,-3.7504,-3.7587,-3.7612,-3.7635,-3.7332,-3.733,-3.7329,0,0,-3.6624,-3.6672,-3.6787,-3.6836,-3.691,-3.693,-3.6957,-3.7025,-3.7046,-3.7177,-3.7151,-3.7234,-3.7386,-3.7437,-3.7483,-3.7674,-3.765,-3.7701,-3.7797,-3.7881,-3.7903,-3.7922,-3.799,-3.8014,-3.7717,-3.7717,-3.7717,0,-3.67,-3.6842,-3.6848,-3.6953,-3.7006,-3.6977,-3.7093,-3.714,-3.7238,-3.7274,-3.7233,-3.7423,-3.7469,-3.7628,-3.7675,-3.7713,-3.7744,-3.7693,-3.7899,-3.7919,-3.7936,-3.8002,-3.8027,-3.7723,-3.7722,-3.7721,-3.7721,0,-3.6932,-3.703,-3.7114,-3.7209,-3.7271,-3.7381,-3.7402,-3.7464,-3.7459,-3.7482,-3.7616,-3.7669,-3.7763,-3.7801,-3.7797,-3.796,-3.7936,-3.7897,-3.7824,-3.7968,-3.8029,-3.8054,-3.7731,-3.7729,-3.7727,-3.7726,0,0,-3.7153,-3.7249,-3.7279,-3.7322,-3.74,-3.7476,-3.7584,-3.7676,-3.7729,-3.7797,-3.7887,-3.8016,-3.798,-3.8033,-3.8034,-3.8108,-3.8255,-3.806,-3.8062,-3.8095,-3.8438,-3.8467,-3.8496,-3.824,-3.8244,-3.8248,-3.8432,0,-3.7333,-3.7524,-3.7531,-3.7705,-3.7795,-3.7768,-3.7862,-3.792,-3.7945,-3.8024,-3.805,-3.8142,-3.8088,-3.812,-3.8191,-3.8222,-3.8324,-3.8209,-3.8323,-3.8327,-3.8307,-3.8528,-3.8559,-3.873,-3.8456,-3.846,-3.8463,0,-3.7569,-3.7644,-3.7827,-3.7892,-3.793,-3.8015,-3.8099,-3.8176,-3.8241,-3.8253,-3.8311,-3.8301,-3.841,-3.8333,-3.8483,-3.8404,-3.8451,-3.8473,-3.848,-3.8492,-3.8405,-3.8546,-3.8785,-3.8811,-3.8501,-3.8498,-3.8495,0,-3.7712,-3.7859,-3.7987,-3.8024,-3.8103,-3.8163,-3.8198,-3.8258,-3.8313,-3.8386,-3.8421,-3.8506,-3.8553,-3.8619,-3.8632,-3.8574,-3.8783,-3.8706,-3.8795,-3.8795,-3.8841,-3.8839,-3.9092,-3.8871,-3.887,-3.887,-3.8869,0,-3.7913,-3.8026,-3.8052,-3.8131,-3.8256,-3.8263,-3.8387,-3.8418,-3.8471,-3.8555,-3.8536,-3.8615,-3.8627,-3.8708,-3.8719,-3.8842,-3.8863,-3.8875,-3.8877,-3.8878,-3.8876,-3.8909,-3.8898,-3.8877,-3.8875,-3.8874,-3.8873,0,-3.8095,-3.8117,-3.8255,-3.8318,-3.8336,-3.8426,-3.8479,-3.8554,-3.8576,-3.8682,-3.8707,-3.8741,-3.8836,-3.8855,-3.8967,-3.8974,-3.912,-3.911,-3.9099,-3.9098,-3.9187,-3.9178,-3.9471,-3.951,-3.9262,-3.9265,-3.9267,0,-3.8222,-3.8308,-3.838,-3.8435,-3.8473,-3.8562,-3.8618,-3.8627,-3.8685,-3.8765,-3.883,-3.8923,-3.8998,-3.915,-3.9184,-3.927,-3.9261,-3.9358,-3.9274,-3.9272,-3.9263,-3.9258,-3.9267,-3.9374,-3.9377,-3.9379,-3.9381,0,-3.8445,-3.8452,-3.8533,-3.8618,-3.8684,-3.8752,-3.8815,-3.8861,-3.8879,-3.8945,-3.9042,-3.91,-3.9214,-3.9306,-3.9391,-3.9427,-3.9408,-3.9407,-3.9432,-3.9434,-3.9425,-3.9431,-3.9143,-3.9401,-3.9399,-3.9397,-3.9396,-3.9395,-3.8604,-3.8679,-3.8742,-3.8832,-3.8881,-3.8941,-3.9014,-3.9044,-3.9126,-3.922,-3.922,-3.9326,-3.9386,-3.9499,-3.9539,-3.9622,-3.9591,-3.9628,-3.9637,-3.9646,-3.9655,-3.9411,-3.9637,-3.9636,-3.9636,-3.9636,-3.9635,0,-3.8827,-3.8865,-3.8948,-3.9038,-3.9109,-3.9084,-3.9153,-3.9214,-3.9307,-3.9366,-3.944,-3.9551,-3.964,-3.968,-3.9768,-3.9826,-3.9819,-3.9849,-3.9845,-3.9853,-3.9677,-3.9646,-3.9853,-3.9853,-3.9853,-3.9852,-3.9852,-3.9852,-3.8952,-3.9077,-3.9091,-3.924,-3.9277,-3.9381,-3.9423,-3.9477,-3.9524,-3.9649,-3.9723,-3.9748,-3.98,-3.989,-3.9971,-3.998,-4.0013,-4.0048,-4.0053,-3.9888,-3.9866,-3.9845,-3.9816,-4.0055,-4.0055,-4.0222,-4.0224,-4.0225]}]]